GW5108 Weather Reports


time (UTC)temp
C
wind
direction
speed
KPH
gust
KPH
rain 1hr
cm
rain 24hr
cm
rain mn
cm
humidity
%
barometer
mb
20260504070344 6 282 0.0 0.0 0.00 0.00 0.00 64 1018.7
20260504050732 7 299 0.0 0.0 0.00 0.00 0.00 58 1019.4
20260504050229 7 299 0.0 0.0 0.00 0.00 0.00 57 1019.4
20260504045726 7 299 0.0 0.0 0.00 0.00 0.00 55 1019.4
20260504045221 6 291 0.0 0.0 0.00 0.00 0.00 53 1019.4
20260504044719 7 291 0.0 0.0 0.00 0.00 0.00 52 1019.4
20260504044216 7 291 0.0 0.0 0.00 0.00 0.00 53 1019.4
20260504043713 7 291 0.0 1.6 0.00 0.00 0.00 53 1019.2
20260504043210 7 291 0.0 3.2 0.00 0.00 0.00 53 1019.3
20260504042708 6 293 0.0 0.0 0.00 0.00 0.00 57 1019.3
20260504042204 6 293 0.0 0.0 0.00 0.00 0.00 55 1019.2
20260504041700 6 294 0.0 0.0 0.00 0.00 0.00 51 1019.2
20260504041155 6 297 0.0 0.0 0.00 0.00 0.00 52 1019.2
20260504040653 6 297 0.0 0.0 0.00 0.00 0.00 57 1019.0
20260504040150 6 297 0.0 0.0 0.00 0.00 0.00 55 1019.2
20260504035646 6 297 0.0 0.0 0.00 0.00 0.00 56 1019.2
20260504035143 6 297 0.0 0.0 0.00 0.00 0.00 56 1019.2
20260504034641 6 297 0.0 0.0 0.00 0.00 0.00 58 1019.0
20260504034138 7 297 0.0 0.0 0.00 0.00 0.00 57 1019.0
20260504033635 7 297 0.0 0.0 0.00 0.00 0.00 56 1019.2
20260504033133 7 299 0.0 1.6 0.00 0.00 0.00 50 1019.2
20260504032629 7 301 0.0 1.6 0.00 0.00 0.00 49 1019.2
20260504032126 6 303 1.6 1.6 0.00 0.00 0.00 52 1018.6
20260504031624 6 303 0.0 0.0 0.00 0.00 0.00 53 1018.7
20260504031120 6 303 0.0 0.0 0.00 0.00 0.00 55 1018.9
20260504030617 6 303 0.0 0.0 0.00 0.00 0.00 55 1019.0
20260504030113 6 303 0.0 0.0 0.00 0.00 0.00 55 1019.0
20260504025610 5 303 0.0 0.0 0.00 0.00 0.00 59 1018.9
20260504025107 5 303 0.0 0.0 0.00 0.00 0.00 59 1019.0
20260504024604 5 303 0.0 0.0 0.00 0.00 0.00 60 1018.9
20260504024101 5 303 0.0 0.0 0.00 0.00 0.00 58 1018.9
20260504023557 5 303 0.0 0.0 0.00 0.00 0.00 60 1019.2
20260504023053 4 303 0.0 0.0 0.00 0.00 0.00 61 1018.9
20260504022550 4 303 0.0 0.0 0.00 0.00 0.00 61 1019.4
20260504022046 4 303 0.0 0.0 0.00 0.00 0.00 59 1019.3
20260504021543 5 303 0.0 0.0 0.00 0.00 0.00 58 1019.3
20260504021040 5 303 0.0 0.0 0.00 0.00 0.00 58 1019.4
20260504020537 5 303 0.0 0.0 0.00 0.00 0.00 57 1019.0
20260504020034 5 303 0.0 0.0 0.00 0.00 0.00 57 1018.8
20260504015530 6 303 0.0 0.0 0.00 0.00 0.00 56 1018.9
20260504015026 6 303 0.0 0.0 0.00 0.00 0.00 55 1018.7
20260504014522 6 303 0.0 0.0 0.00 0.00 0.00 55 1018.7
20260504014020 6 303 0.0 0.0 0.00 0.00 0.00 54 1018.7
20260504013518 7 303 0.0 0.0 0.00 0.00 0.00 53 1018.9
20260504013014 7 303 0.0 0.0 0.00 0.00 0.00 54 1018.7
20260504012512 7 303 0.0 0.0 0.00 0.00 0.00 52 1018.6
20260504012010 7 303 0.0 0.0 0.00 0.00 0.00 53 1018.7
20260504011506 6 303 0.0 0.0 0.00 0.00 0.00 53 1018.6
20260504011001 6 303 0.0 0.0 0.00 0.00 0.00 56 1018.3
20260504010458 6 303 0.0 0.0 0.00 0.00 0.00 55 1018.4
20260504005953 6 303 0.0 0.0 0.00 0.00 0.00 54 1018.5
20260504005451 6 303 0.0 0.0 0.00 0.00 0.00 52 1018.3
20260504004948 7 303 0.0 0.0 0.00 0.00 0.00 51 1018.3
20260504004446 7 303 0.0 0.0 0.00 0.00 0.00 52 1018.5
20260504003943 7 303 0.0 0.0 0.00 0.00 0.00 48 1018.3
20260504003439 8 303 0.0 0.0 0.00 0.00 0.00 48 1018.4
20260504002935 8 304 0.0 0.0 0.00 0.00 0.00 47 1018.2
20260504002433 8 303 0.0 1.6 0.00 0.00 0.00 47 1018.1
20260504001930 9 305 0.0 3.2 0.00 0.00 0.00 47 1018.3
20260504001427 10 306 1.6 3.2 0.00 0.00 0.00 45 1018.4
20260504000924 10 302 1.6 3.2 0.00 0.00 0.00 42 1018.2
20260504000423 11 308 3.2 4.8 0.00 0.00 0.00 41 1018.3
20260503235918 11 321 0.0 3.2 0.00 0.00 0.00 38 1018.1
20260503235416 11 286 4.8 4.8 0.00 0.00 0.00 37 1018.1
20260503234914 12 306 3.2 6.4 0.00 0.00 0.00 37 1018.2
20260503234411 12 304 8.0 9.7 0.00 0.00 0.00 34 1018.3
20260503233909 12 308 8.0 12.9 0.00 0.00 0.00 36 1018.1
20260503233405 12 299 8.0 12.9 0.00 0.00 0.00 34 1018.1
20260503232901 12 305 9.7 14.5 0.00 0.00 0.00 33 1018.2
20260503232359 12 304 6.4 11.3 0.00 0.00 0.00 32 1018.1
20260503231856 12 283 8.0 9.7 0.00 0.00 0.00 32 1018.2
20260503231353 12 293 6.4 11.3 0.00 0.00 0.00 31 1018.6
20260503230849 13 257 11.3 14.5 0.00 0.00 0.00 30 1018.6
20260503230346 13 279 8.0 12.9 0.00 0.00 0.00 31 1018.4
20260503225844 13 316 8.0 14.5 0.00 0.00 0.00 32 1018.5
20260503225339 13 296 8.0 16.1 0.00 0.00 0.00 29 1018.5
20260503224836 13 298 6.4 9.7 0.00 0.00 0.00 32 1018.4
20260503224333 13 296 6.4 9.7 0.00 0.00 0.00 33 1018.5
20260503223831 13 297 6.4 14.5 0.00 0.00 0.00 29 1018.6
20260503223328 13 298 9.7 12.9 0.00 0.00 0.00 31 1018.4
20260503222824 13 323 12.9 24.1 0.00 0.00 0.00 31 1018.5
20260503222323 13 319 12.9 22.5 0.00 0.00 0.00 33 1018.3
20260503221820 13 296 8.0 12.9 0.00 0.00 0.00 33 1018.5
20260503221319 13 273 3.2 12.9 0.00 0.00 0.00 33 1018.5
20260503220814 13 268 8.0 12.9 0.00 0.00 0.00 31 1018.5
20260503220312 13 295 12.9 16.1 0.00 0.00 0.00 32 1018.3
20260503215808 13 313 6.4 6.4 0.00 0.00 0.00 31 1018.2
20260503215305 14 275 14.5 16.1 0.00 0.00 0.00 30 1018.5
20260503214803 13 324 4.8 6.4 0.00 0.00 0.00 32 1018.4
20260503214300 13 307 9.7 17.7 0.00 0.00 0.00 32 1018.6
20260503213758 13 308 11.3 16.1 0.00 0.00 0.00 32 1018.7
20260503213255 13 316 8.0 9.7 0.00 0.00 0.00 35 1018.6
20260503212752 13 301 11.3 20.9 0.00 0.00 0.00 31 1018.8
20260503212250 13 279 6.4 17.7 0.00 0.00 0.00 35 1018.7
20260503211747 13 321 3.2 14.5 0.00 0.00 0.00 29 1018.7
20260503211243 13 267 4.8 11.3 0.00 0.00 0.00 34 1018.5
20260503210738 13 269 9.7 17.7 0.00 0.00 0.00 30 1018.6
20260503210236 13 340 11.3 16.1 0.00 0.00 0.00 32 1018.6
20260503205731 13 279 11.3 20.9 0.00 0.00 0.00 29 1018.7
20260503205228 13 237 6.4 20.9 0.00 0.00 0.00 34 1018.8
20260503204724 13 308 12.9 16.1 0.00 0.00 0.00 32 1018.6
20260503204222 13 267 3.2 12.9 0.00 0.00 0.00 32 1018.8
20260503203719 13 298 8.0 14.5 0.00 0.00 0.00 35 1018.7
20260503203217 13 260 3.2 9.7 0.00 0.00 0.00 31 1018.6
20260503202714 13 255 6.4 12.9 0.00 0.00 0.00 33 1019.2
20260503202212 13 267 3.2 9.7 0.00 0.00 0.00 38 1018.9
20260503201709 13 301 9.7 14.5 0.00 0.00 0.00 32 1019.0
20260503201207 13 316 16.1 20.9 0.00 0.00 0.00 34 1019.2
20260503200703 13 315 14.5 22.5 0.00 0.00 0.00 34 1019.2
20260503200159 13 252 8.0 22.5 0.00 0.00 0.00 30 1019.5
20260503195656 13 341 11.3 22.5 0.00 0.00 0.00 31 1019.3
20260503195153 13 292 14.5 22.5 0.00 0.00 0.00 35 1019.4
20260503194650 13 261 11.3 16.1 0.00 0.00 0.00 31 1019.5
20260503194145 14 310 9.7 12.9 0.00 0.00 0.00 32 1019.7
20260503193642 13 232 3.2 11.3 0.00 0.00 0.00 36 1019.8
20260503193138 12 232 3.2 3.2 0.00 0.00 0.00 37 1019.7
20260503192634 13 320 3.2 6.4 0.00 0.00 0.00 36 1019.8
20260503192129 13 261 1.6 12.9 0.00 0.00 0.00 33 1019.9
20260503191626 13 200 9.7 12.9 0.00 0.00 0.00 32 1020.1
20260503191124 13 336 3.2 9.7 0.00 0.00 0.00 38 1020.2
20260503190620 13 252 1.6 6.4 0.00 0.00 0.00 29 1020.3
20260503190117 12 291 9.7 14.5 0.00 0.00 0.00 36 1020.3
20260503185614 12 333 3.2 11.3 0.00 0.00 0.00 36 1020.3
20260503185114 12 319 8.0 16.1 0.00 0.00 0.00 36 1020.4
20260503184609 12 312 8.0 16.1 0.00 0.00 0.00 43 1020.4
20260503184106 12 326 3.2 11.3 0.00 0.00 0.00 38 1020.3
20260503183603 11 274 12.9 20.9 0.00 0.00 0.00 33 1020.4
20260503183100 11 263 3.2 6.4 0.00 0.00 0.00 33 1020.4
20260503182559 11 285 11.3 16.1 0.00 0.00 0.00 34 1020.4
20260503182056 11 32 4.8 17.7 0.00 0.00 0.00 33 1020.6
20260503181553 11 341 6.4 16.1 0.00 0.00 0.00 39 1020.8
20260503181049 11 327 17.7 25.7 0.00 0.00 0.00 34 1021.0
20260503180547 11 241 3.2 9.7 0.00 0.00 0.00 31 1020.7
20260503180044 11 310 12.9 17.7 0.00 0.00 0.00 37 1020.8
20260503175541 11 316 8.0 9.7 0.00 0.00 0.00 43 1021.1
20260503175038 11 301 6.4 11.3 0.00 0.00 0.00 42 1021.0
20260503174536 11 347 14.5 22.5 0.00 0.00 0.00 41 1021.0
20260503174032 10 343 4.8 16.1 0.00 0.00 0.00 39 1021.1
20260503173527 11 115 1.6 6.4 0.00 0.00 0.00 42 1021.1
20260503173023 11 301 6.4 9.7 0.00 0.00 0.00 38 1021.3
20260503172521 10 253 6.4 11.3 0.00 0.00 0.00 35 1021.3
20260503172018 10 299 6.4 11.3 0.00 0.00 0.00 37 1021.1
20260503171514 10 327 9.7 11.3 0.00 0.00 0.00 45 1021.3
20260503171012 10 330 9.7 17.7 0.00 0.00 0.00 37 1021.2
20260503170508 10 313 4.8 11.3 0.00 0.00 0.00 38 1021.3
20260503150900 7 355 6.4 16.1 0.00 0.00 0.00 47 1022.2
20260503150356 7 5 9.7 17.7 0.00 0.00 0.00 45 1022.3
20260503131250 4 313 8.0 12.9 0.00 0.00 0.00 69 1022.1
20260503130748 4 325 4.8 11.3 0.00 0.00 0.00 69 1022.1
20260503130245 4 292 8.0 11.3 0.00 0.00 0.00 67 1022.2
20260503120211 2 297 6.4 9.7 0.00 0.00 0.00 82 1021.2
20260503110638 0 291 3.2 4.8 0.00 0.00 0.00 89 1020.6
20260503110136 0 291 3.2 3.2 0.00 0.00 0.00 90 1020.6
20260503081452 1 303 4.8 4.8 0.00 0.00 0.00 81 1019.0
20260503080949 1 305 8.0 9.7 0.00 0.00 0.00 80 1019.0
20260503080445 1 304 4.8 6.4 0.00 0.00 0.00 80 1019.0
20260503072921 1 314 6.4 11.3 0.00 0.00 0.00 77 1018.7